GW4284 Weather Reports


time (UTC)temp
C
wind
direction
speed
KPH
gust
KPH
rain 1hr
cm
rain 24hr
cm
rain mn
cm
humidity
%
barometer
mb
20260507051537 11 271 6.4 9.7 0.00 0.00 0.00 87 1003.4
20260507051034 11 290 4.8 4.8 0.00 0.00 0.00 87 1003.4
20260507050530 11 283 3.2 3.2 0.00 0.00 0.00 87 1003.2
20260507050027 11 316 3.2 4.8 0.00 0.00 0.00 87 1003.3
20260507045523 11 292 3.2 4.8 0.00 0.00 0.00 87 1003.4
20260507045021 11 277 4.8 4.8 0.00 0.00 0.00 88 1003.2
20260507044518 11 349 3.2 4.8 0.00 0.00 0.00 87 1003.2
20260507044014 11 353 1.6 1.6 0.00 0.00 0.00 87 1003.2
20260507043510 11 312 1.6 3.2 0.00 0.00 0.00 87 1003.4
20260507043008 11 318 4.8 4.8 0.00 0.00 0.00 88 1003.1
20260507042503 11 303 6.4 8.0 0.00 0.00 0.00 88 1003.0
20260507041959 11 311 6.4 8.0 0.00 0.00 0.00 87 1003.2
20260507041456 11 276 4.8 4.8 0.00 0.00 0.00 87 1003.3
20260507040953 11 293 3.2 3.2 0.00 0.00 0.00 87 1003.5
20260507040449 11 294 4.8 4.8 0.00 0.00 0.00 86 1003.3
20260507035945 11 221 3.2 3.2 0.00 0.00 0.00 87 1003.2
20260507035442 11 283 4.8 8.0 0.00 0.00 0.00 86 1003.0
20260507034938 11 311 4.8 4.8 0.00 0.00 0.00 86 1002.9
20260507034435 12 349 4.8 4.8 0.00 0.00 0.00 86 1003.0
20260507033934 12 301 3.2 3.2 0.00 0.00 0.00 85 1002.8
20260507033431 12 303 4.8 4.8 0.00 0.00 0.00 84 1002.9
20260507032928 12 280 6.4 8.0 0.00 0.00 0.00 85 1002.7
20260507032425 12 307 4.8 4.8 0.00 0.00 0.00 85 1002.7
20260507031921 12 323 6.4 8.0 0.00 0.00 0.00 84 1002.8
20260507031417 12 350 6.4 9.7 0.00 0.00 0.00 83 1002.8
20260507030914 12 339 8.0 9.7 0.00 0.00 0.00 84 1002.8
20260507030412 12 349 4.8 8.0 0.00 0.00 0.00 84 1002.6
20260507025908 12 286 6.4 8.0 0.00 0.00 0.00 84 1002.8
20260507025406 12 343 3.2 3.2 0.00 0.00 0.00 84 1002.3
20260507024904 12 298 6.4 9.7 0.00 0.00 0.00 83 1002.6
20260507024400 12 339 4.8 4.8 0.00 0.00 0.00 83 1002.4
20260507023856 12 330 11.3 12.9 0.00 0.00 0.00 83 1002.6
20260507023353 12 304 9.7 12.9 0.00 0.00 0.00 84 1002.2
20260507022851 13 312 8.0 9.7 0.00 0.00 0.00 84 1002.3
20260507022347 13 301 9.7 14.5 0.00 0.00 0.00 83 1002.1
20260507021843 13 302 9.7 11.3 0.00 0.00 0.00 84 1002.3
20260507021338 13 331 11.3 12.9 0.00 0.00 0.00 84 1002.2
20260507020837 13 308 8.0 8.0 0.00 0.00 0.00 84 1002.3
20260507020333 13 305 8.0 9.7 0.00 0.00 0.00 83 1002.1
20260507015830 13 300 3.2 8.0 0.00 0.00 0.00 82 1002.1
20260507015328 14 301 6.4 8.0 0.00 0.00 0.00 83 1002.0
20260507014825 14 2 6.4 8.0 0.00 0.00 0.00 80 1002.3
20260507014321 14 300 4.8 8.0 0.00 0.00 0.00 81 1002.4
20260507013817 14 315 4.8 4.8 0.00 0.00 0.00 82 1002.2
20260507013315 14 342 4.8 4.8 0.00 0.00 0.00 82 1002.4
20260507012807 14 348 4.8 4.8 0.00 0.00 0.00 82 1002.4
20260507012306 14 354 4.8 4.8 0.00 0.00 0.00 81 1002.4
20260507011800 14 343 12.9 14.5 0.00 0.00 0.00 82 1002.3
20260507011257 15 332 6.4 11.3 0.00 0.00 0.00 81 1002.4
20260507010756 15 347 11.3 12.9 0.00 0.00 0.00 80 1002.4
20260507010252 15 333 4.8 4.8 0.00 0.00 0.00 80 1002.6
20260507005750 15 346 8.0 9.7 0.00 0.00 0.00 81 1002.6
20260507005246 15 299 6.4 8.0 0.00 0.00 0.00 81 1002.5
20260507004743 15 315 8.0 12.9 0.00 0.00 0.00 79 1002.3
20260507004241 15 15 6.4 8.0 0.00 0.00 0.00 81 1002.5
20260507003737 15 301 11.3 14.5 0.00 0.00 0.00 79 1002.5
20260507003232 15 304 8.0 9.7 0.00 0.00 0.00 80 1002.4
20260507002728 16 351 12.9 14.5 0.00 0.00 0.00 77 1002.3
20260507002225 15 266 8.0 9.7 0.00 0.00 0.00 79 1002.5
20260507001721 16 297 9.7 9.7 0.00 0.00 0.00 79 1002.4
20260507001219 16 327 8.0 9.7 0.00 0.00 0.00 78 1002.2
20260507000715 16 314 14.5 20.9 0.00 0.00 0.00 78 1002.3
20260507000212 16 266 6.4 9.7 0.00 0.00 0.00 77 1002.0
20260506235708 16 277 8.0 11.3 0.00 0.00 0.00 78 1002.4
20260506235203 16 311 6.4 9.7 0.00 0.00 0.00 77 1002.4
20260506234700 16 255 4.8 8.0 0.00 0.00 0.00 77 1002.1
20260506234157 16 296 3.2 3.2 0.00 0.00 0.00 77 1002.0
20260506233655 16 279 9.7 11.3 0.00 0.00 0.00 76 1002.3
20260506233151 17 293 4.8 4.8 0.00 0.00 0.00 77 1002.4
20260506232648 17 166 4.8 9.7 0.00 0.00 0.00 74 1002.2
20260506232143 17 302 6.4 8.0 0.00 0.00 0.00 76 1002.1
20260506231640 17 287 1.6 1.6 0.00 0.00 0.00 76 1002.1
20260506231139 17 333 6.4 8.0 0.00 0.00 0.00 77 1002.3
20260506230635 17 348 6.4 8.0 0.00 0.00 0.00 77 1002.3
20260506230132 17 338 1.6 3.2 0.00 0.00 0.00 77 1002.4
20260506225629 17 169 1.6 1.6 0.00 0.00 0.00 73 1002.4
20260506225125 17 337 1.6 1.6 0.00 0.00 0.00 75 1002.6
20260506224622 17 208 4.8 4.8 0.00 0.00 0.00 71 1002.5
20260506224118 17 327 1.6 1.6 0.00 0.00 0.00 71 1002.4
20260506223615 17 0 6.4 8.0 0.00 0.00 0.00 71 1002.4
20260506223111 18 218 6.4 8.0 0.00 0.00 0.00 69 1002.5
20260506222608 17 145 4.8 4.8 0.00 0.00 0.00 72 1002.5
20260506222104 18 304 3.2 3.2 0.00 0.00 0.00 71 1002.7
20260506221602 17 341 4.8 4.8 0.00 0.00 0.00 72 1002.7
20260506221100 18 21 1.6 3.2 0.00 0.00 0.00 72 1002.6
20260506220556 17 340 0.0 1.6 0.00 0.00 0.00 74 1002.7
20260506220051 17 218 1.6 1.6 0.00 0.00 0.00 77 1002.8
20260506215548 16 289 3.2 3.2 0.00 0.00 0.00 75 1002.9
20260506215044 16 314 0.0 0.0 0.00 0.00 0.00 77 1002.6
20260506214541 16 209 4.8 4.8 0.00 0.00 0.00 77 1002.7
20260506214038 16 314 4.8 4.8 0.00 0.00 0.00 76 1002.7
20260506213536 16 347 6.4 9.7 0.00 0.00 0.00 78 1002.8
20260506213033 16 91 1.6 3.2 0.00 0.00 0.00 79 1003.0
20260506212530 16 328 6.4 8.0 0.00 0.00 0.00 80 1002.9
20260506212025 17 251 1.6 3.2 0.00 0.00 0.00 78 1003.0
20260506211521 16 349 1.6 1.6 0.00 0.00 0.00 80 1003.0
20260506211019 17 18 3.2 3.2 0.00 0.00 0.00 79 1002.9
20260506210515 16 190 1.6 1.6 0.00 0.00 0.00 81 1002.8
20260506210012 16 326 1.6 3.2 0.00 0.00 0.00 79 1003.1
20260506205508 16 205 1.6 1.6 0.00 0.00 0.00 83 1003.1
20260506205004 16 65 0.0 1.6 0.00 0.00 0.00 86 1003.0
20260506204502 16 84 1.6 3.2 0.00 0.00 0.00 83 1003.2
20260506203959 16 7 1.6 1.6 0.00 0.00 0.00 83 1003.1
20260506203456 16 179 1.6 1.6 0.00 0.00 0.00 83 1003.2
20260506202953 15 351 1.6 1.6 0.00 0.00 0.00 85 1003.3
20260506202450 15 172 4.8 8.0 0.00 0.00 0.00 84 1003.2
20260506201946 15 329 1.6 3.2 0.00 0.00 0.00 84 1003.3
20260506201443 15 176 3.2 3.2 0.00 0.00 0.00 84 1003.1
20260506200940 15 182 4.8 8.0 0.00 0.00 0.00 84 1003.2
20260506200436 15 253 1.6 1.6 0.00 0.00 0.00 86 1003.0
20260506195933 15 247 3.2 3.2 0.00 0.00 0.00 83 1003.2
20260506195430 15 130 4.8 8.0 0.00 0.00 0.00 85 1003.1
20260506194926 15 56 1.6 1.6 0.00 0.00 0.00 87 1003.1
20260506194424 15 111 4.8 8.0 0.00 0.00 0.00 88 1003.1
20260506193921 15 108 1.6 3.2 0.00 0.00 0.00 88 1003.0
20260506193418 14 161 1.6 3.2 0.00 0.00 0.00 88 1003.3
20260506192914 14 1 0.0 1.6 0.00 0.00 0.00 88 1003.2
20260506192411 14 161 6.4 9.7 0.00 0.00 0.00 89 1003.3
20260506191908 14 175 3.2 3.2 0.00 0.00 0.00 88 1003.5
20260506191404 15 72 0.0 0.0 0.00 0.00 0.00 88 1003.3
20260506190901 14 280 0.0 0.0 0.00 0.00 0.00 88 1003.3
20260506190358 14 249 0.0 0.0 0.00 0.00 0.00 88 1003.1
20260506185855 15 210 1.6 1.6 0.00 0.00 0.00 87 1003.4
20260506185352 15 155 3.2 3.2 0.00 0.00 0.00 86 1003.1
20260506184848 15 254 1.6 1.6 0.00 0.00 0.00 87 1003.2
20260506184345 15 193 6.4 8.0 0.00 0.00 0.00 87 1003.1
20260506183843 15 307 3.2 3.2 0.00 0.00 0.00 87 1003.2
20260506183338 15 113 0.0 0.0 0.00 0.00 0.00 87 1003.1
20260506182836 14 211 0.0 1.6 0.00 0.00 0.00 87 1003.3
20260506182333 14 277 3.2 4.8 0.00 0.00 0.00 88 1003.0
20260506181830 14 198 3.2 4.8 0.00 0.00 0.00 89 1003.2
20260506181328 13 324 1.6 1.6 0.00 0.00 0.00 90 1003.3
20260506180825 14 332 4.8 4.8 0.00 0.00 0.00 89 1003.1
20260506180321 14 132 4.8 8.0 0.00 0.00 0.00 88 1003.0
20260506175817 14 138 0.0 1.6 0.00 0.00 0.00 89 1002.9
20260506175314 13 256 0.0 0.0 0.00 0.00 0.00 90 1003.0
20260506174812 13 356 1.6 1.6 0.00 0.00 0.00 91 1003.1
20260506174309 13 262 1.6 1.6 0.00 0.00 0.00 91 1002.9
20260506173806 13 302 4.8 4.8 0.00 0.00 0.00 92 1003.0
20260506173303 13 325 4.8 4.8 0.00 0.00 0.00 93 1002.9
20260506172800 12 290 3.2 3.2 0.00 0.00 0.00 93 1002.6
20260506172256 12 348 3.2 3.2 0.00 0.00 0.00 93 1002.9
20260506171754 12 332 3.2 4.8 0.00 0.00 0.00 94 1002.9
20260506171251 12 287 3.2 3.2 0.00 0.00 0.00 94 1002.8
20260506170749 12 326 4.8 4.8 0.00 0.00 0.00 94 1002.9
20260506170245 12 340 1.6 1.6 0.00 0.00 0.00 94 1002.8
20260506165743 12 326 3.2 4.8 0.00 0.00 0.00 94 1002.7
20260506165240 12 313 1.6 1.6 0.00 0.00 0.00 94 1002.8
20260506164737 12 113 0.0 1.6 0.00 0.00 0.00 95 1002.5
20260506164234 12 190 0.0 0.0 0.00 0.00 0.00 96 1002.7
20260506163731 12 178 1.6 1.6 0.00 0.00 0.00 96 1002.8
20260506163226 12 214 0.0 1.6 0.00 0.00 0.00 96 1002.8
20260506162722 12 230 0.0 0.0 0.00 0.00 0.00 96 1002.7
20260506162220 12 172 0.0 0.0 0.00 0.00 0.00 96 1002.9
20260506161717 12 227 1.6 1.6 0.00 0.00 0.00 95 1002.8
20260506161214 12 322 1.6 1.6 0.00 0.00 0.00 94 1002.7
20260506160712 12 196 3.2 3.2 0.00 0.00 0.00 94 1002.6
20260506160208 12 314 1.6 3.2 0.00 0.00 0.00 94 1002.5
20260506155706 12 165 1.6 3.2 0.00 0.00 0.00 94 1002.4
20260506155203 12 135 1.6 1.6 0.00 0.00 0.00 94 1002.4
20260506153305 12 143 3.2 3.2 0.00 0.00 0.00 94 1002.0
20260506152802 12 170 3.2 3.2 0.00 0.00 0.00 93 1001.9
20260506152259 12 137 3.2 3.2 0.00 0.00 0.00 93 1001.9
20260506151758 12 96 1.6 3.2 0.00 0.00 0.00 93 1002.2
20260506151254 11 96 1.6 1.6 0.00 0.00 0.00 94 1002.3
20260506150751 11 324 0.0 0.0 0.00 0.00 0.00 95 1002.1
20260506150248 11 347 0.0 0.0 0.00 0.00 0.00 96 1002.3
20260506145745 11 302 0.0 1.6 0.00 0.00 0.00 96 1002.5
20260506145241 11 298 3.2 3.2 0.00 0.00 0.00 97 1002.5
20260506144739 11 50 1.6 1.6 0.00 0.00 0.00 97 1002.7
20260506144236 11 328 1.6 1.6 0.00 0.00 0.00 97 1002.6
20260506143733 11 299 1.6 1.6 0.00 0.00 0.00 97 1002.5
20260506143231 11 356 3.2 3.2 0.00 0.00 0.00 98 1002.4
20260506142729 11 309 0.0 0.0 0.00 0.00 0.00 98 1002.3
20260506142227 11 268 0.0 0.0 0.00 0.00 0.00 98 1002.1
20260506141725 11 312 4.8 4.8 0.00 0.00 0.00 98 1002.3
20260506141223 11 301 1.6 3.2 0.00 0.00 0.00 98 1002.3
20260506140720 11 301 4.8 4.8 0.00 0.00 0.00 98 1002.0
20260506140217 11 318 1.6 1.6 0.00 0.00 0.00 99 1001.8
20260506135713 11 273 1.6 1.6 0.00 0.00 0.00 99 1001.5
20260506135210 11 277 0.0 1.6 0.00 0.00 0.00 99 1001.8
20260506134707 11 269 0.0 0.0 0.00 0.00 0.00 99 1001.8
20260506134203 11 295 0.0 0.0 0.00 0.00 0.00 99 1001.7
20260506133700 11 310 0.0 0.0 0.00 0.00 0.00 99 1001.6
20260506133157 11 267 0.0 0.0 0.00 0.00 0.00 99 1001.6
20260506132654 11 294 0.0 0.0 0.00 0.00 0.00 99 1001.6
20260506132151 10 278 0.0 0.0 0.00 0.00 0.00 99 1001.5
20260506131649 10 298 0.0 0.0 0.00 0.00 0.00 99 1001.5
20260506131145 10 285 0.0 0.0 0.00 0.00 0.00 99 1001.5
20260506130641 10 278 0.0 0.0 0.00 0.00 0.00 99 1001.4
20260506130139 10 194 0.0 0.0 0.00 0.00 0.00 99 1001.4
20260506125637 11 194 0.0 0.0 0.00 0.00 0.00 99 1001.3
20260506125134 11 194 0.0 0.0 0.00 0.00 0.00 99 1001.4
20260506124632 11 194 0.0 0.0 0.00 0.00 0.00 99 1001.2
20260506124130 11 175 0.0 0.0 0.00 0.00 0.00 98 1001.0
20260506123627 11 188 0.0 0.0 0.00 0.00 0.00 98 1001.0
20260506123126 11 173 0.0 0.0 0.00 0.00 0.00 98 1001.0
20260506122622 11 174 1.6 1.6 0.00 0.00 0.00 98 1001.1
20260506122120 11 200 0.0 0.0 0.00 0.00 0.00 98 1001.2
20260506121617 11 201 0.0 0.0 0.00 0.00 0.00 97 1001.2
20260506121114 11 176 0.0 0.0 0.00 0.00 0.00 97 1001.0
20260506120612 11 262 0.0 0.0 0.00 0.00 0.00 97 1000.9
20260506120109 11 262 0.0 0.0 0.00 0.00 0.00 97 1001.0
20260506115607 11 286 0.0 0.0 0.00 0.00 0.00 97 1001.1
20260506115105 11 291 0.0 0.0 0.00 0.00 0.00 97 1001.1
20260506114602 11 291 1.6 1.6 0.00 0.00 0.00 97 1001.0
20260506114100 11 276 1.6 1.6 0.00 0.00 0.00 97 1000.9
20260506113558 11 290 1.6 1.6 0.00 0.00 0.00 97 1001.0
20260506113055 11 256 0.0 1.6 0.00 0.00 0.00 97 1000.8
20260506112551 11 291 0.0 0.0 0.00 0.00 0.00 97 1000.8
20260506112049 11 291 0.0 0.0 0.00 0.00 0.00 97 1000.7
20260506111547 11 295 0.0 0.0 0.00 0.00 0.00 97 1000.8
20260506111044 11 296 0.0 0.0 0.00 0.00 0.00 97 1000.9
20260506110541 11 294 0.0 0.0 0.00 0.00 0.00 97 1000.9
20260506110038 11 291 0.0 1.6 0.00 0.00 0.00 97 1000.8
20260506105534 11 292 0.0 0.0 0.00 0.00 0.00 97 1000.6
20260506105032 11 298 1.6 1.6 0.00 0.00 0.00 98 1000.6
20260506104530 11 295 0.0 1.6 0.00 0.00 0.00 98 1000.3
20260506104027 11 290 0.0 1.6 0.00 0.00 0.00 98 1000.4
20260506103524 11 289 0.0 1.6 0.00 0.00 0.00 98 1000.3
20260506103021 11 295 0.0 0.0 0.00 0.00 0.00 98 1000.5
20260506102520 11 295 0.0 0.0 0.00 0.00 0.00 97 1000.3
20260506102017 11 295 0.0 0.0 0.00 0.00 0.00 97 1000.1
20260506101513 11 290 0.0 1.6 0.00 0.00 0.00 97 1000.3
20260506101010 11 288 0.0 0.0 0.00 0.00 0.00 97 1000.0
20260506100508 11 289 1.6 1.6 0.00 0.00 0.00 97 1000.2
20260506100007 11 291 0.0 0.0 0.00 0.00 0.00 97 1000.0
20260506095505 11 290 0.0 0.0 0.00 0.00 0.00 97 1000.0
20260506095000 11 291 0.0 0.0 0.00 0.00 0.00 97 999.8
20260506094459 11 291 0.0 0.0 0.00 0.00 0.00 97 1000.0
20260506093956 11 291 0.0 0.0 0.00 0.00 0.00 97 999.9
20260506093454 11 292 0.0 0.0 0.00 0.00 0.00 97 999.9
20260506092951 11 291 0.0 0.0 0.00 0.00 0.00 97 1000.0
20260506092449 11 290 0.0 0.0 0.00 0.00 0.00 96 999.8
20260506091945 11 294 0.0 0.0 0.00 0.00 0.00 96 999.7
20260506091444 12 263 0.0 1.6 0.00 0.00 0.00 96 999.7
20260506090941 12 260 1.6 1.6 0.00 0.00 0.00 96 999.8
20260506090439 12 206 0.0 0.0 0.00 0.00 0.00 96 1000.1
20260506085935 12 190 0.0 0.0 0.00 0.00 0.00 96 999.8
20260506085432 12 191 0.0 0.0 0.00 0.00 0.00 96 999.8
20260506084928 12 190 0.0 0.0 0.00 0.00 0.00 96 999.9
20260506084425 12 190 0.0 0.0 0.00 0.00 0.00 96 999.7
20260506083921 12 190 0.0 0.0 0.00 0.00 0.00 95 999.5
20260506083419 12 188 0.0 1.6 0.00 0.00 0.00 95 999.8
20260506082916 12 179 1.6 1.6 0.00 0.00 0.00 95 999.8
20260506082413 12 224 0.0 0.0 0.00 0.00 0.00 95 999.8
20260506081908 12 235 0.0 0.0 0.00 0.00 0.00 95 999.9
20260506081407 12 290 1.6 1.6 0.00 0.00 0.00 95 999.8
20260506080904 12 288 0.0 0.0 0.00 0.00 0.00 95 999.5
20260506080400 12 288 0.0 0.0 0.00 0.00 0.00 95 999.8
20260506073344 12 285 0.0 0.0 0.00 0.00 0.00 96 999.4
20260506072841 12 284 1.6 1.6 0.00 0.00 0.00 96 999.4
20260506072339 11 284 0.0 0.0 0.00 0.00 0.00 97 999.4
20260506071837 11 284 0.0 0.0 0.00 0.00 0.00 97 999.5
20260506071335 11 284 0.0 1.6 0.00 0.00 0.00 97 999.2
20260506070831 11 268 1.6 1.6 0.00 0.00 0.00 97 999.2
20260506070328 11 266 0.0 0.0 0.00 0.00 0.00 97 999.1
20260506062306 11 205 1.6 1.6 0.00 0.05 0.05 98 998.9
20260506061801 11 199 1.6 1.6 0.00 0.05 0.05 98 998.8
20260506061258 11 206 1.6 1.6 0.00 0.05 0.05 98 999.0
20260506060757 11 206 1.6 1.6 0.00 0.05 0.05 98 998.7
20260506060254 11 209 1.6 1.6 0.00 0.05 0.05 98 998.8